Home > Weather > Victoria > Past weeks

Flag for Canada Past Weather in Victoria, British Columbia, Canada — Yesterday and Last 2 Weeks

Now
59 °F

Overcast.


Feels Like: 59 °F
Forecast: 57 / 66 °F
Wind: 2 mph from West

Location: Victoria Int. Airportb. C.

Current Time: Jul 2, 2016 at 12:36:52 AM

Latest Report: Jul 2, 2016 at 12:00 AM


Visibility: 30 mi

Pressure: 30.04 "Hg

Humidity: 88%

Dew Point: 55 °F

Location of VictoriaLocation

Past Weather in Victoria — Graph

°F

Victoria Temperature Yesterday

Maximum temperature yesterday: 64 °F (at 6:00 PM)
Minimum temperature yesterday: 52 °F (at 3:00 AM)
Average temperature yesterday: 58 °F

High & Low Weather Summary for the Past Weeks

 TemperatureHumidityPressure
High75 °F (Jun 27, 2:00 PM)100% (Jun 23, 12:00 AM)30.40 "Hg (Jun 23, 12:00 AM)
Low48 °F (Jun 17, 4:00 AM)35% (Jun 17, 6:00 PM)29.93 "Hg (Jun 23, 6:00 AM)
Average61 °F71%30.15 "Hg
* Reported Jun 16 11:00 PM — Jul 1 11:00 PM, Victoria, Weather by CustomWeather, © 2016

Note: Actual official high and low records may vary slightly from our data, if they occured in-between our weather recording intervals... More about our weather records

Advertising

Victoria Weather History for the Previous 24 Hours

Scroll right to see more
 ConditionsComfort  
Time TempWeatherWind HumidityBarometerVisibility
11:00 PM
Fri, Jul 1
59 °FOvercast.2 mph88%30.05 "Hg30 mi
10:00 PM59 °FOvercast.No wind82%30.06 "Hg30 mi
9:00 PM57 °FPartly sunny.3 mph88%30.06 "Hg30 mi
8:00 PM61 °FPartly sunny.8 mph77%30.07 "Hg30 mi
7:00 PM63 °FBroken clouds.8 mph73%30.07 "Hg30 mi
6:00 PM64 °FPartly sunny.10 mph73%30.08 "Hg30 mi
5:00 PM63 °FPartly sunny.7 mph77%30.09 "Hg30 mi
4:00 PM63 °FBroken clouds.8 mph73%30.10 "Hg30 mi
3:00 PM61 °FPartly sunny.10 mph68%30.11 "Hg30 mi
2:00 PM61 °FPartly sunny.7 mph72%30.12 "Hg30 mi
1:00 PM59 °FPartly sunny.7 mph77%30.12 "Hg20 mi
12:00 PM57 °FLight rain. More clouds than sun.9 mph88%30.12 "Hg10 mi
11:00 AM57 °FLight rain. Fog.6 mph94%30.13 "Hg3 mi
10:00 AM59 °FLight rain. Mostly cloudy.8 mph82%30.12 "Hg30 mi
9:00 AM57 °FMostly cloudy.8 mph82%30.11 "Hg30 mi
8:00 AM59 °FPartly sunny.8 mph72%30.10 "Hg30 mi
7:00 AM57 °FPartly sunny.3 mph82%30.08 "Hg30 mi
6:00 AM54 °FPassing clouds.3 mph88%30.07 "Hg30 mi
5:00 AM54 °FPassing clouds.3 mph88%30.06 "Hg30 mi
4:00 AM54 °FPassing clouds.No wind88%30.07 "Hg30 mi
3:00 AM52 °FPassing clouds.2 mph94%30.08 "Hg30 mi
2:00 AM54 °FPassing clouds.2 mph88%30.08 "Hg30 mi
1:00 AM54 °FPassing clouds.No wind82%30.09 "Hg30 mi
12:00 AM55 °FPassing clouds.No wind82%30.09 "Hg30 mi
Weather by CustomWeather, © 2016

See weather overviewHow to use our weather pages